Regional Weather Roundup
Issued by NWS Sterling, VA

Home | Current Version | Previous Version | Graphics & Text | Print | Product List | Glossary On
Versions: 1 2 3 4 5 6 7 8 9 10 11 12 13 14 15 16 17 18 19 20 21 22 23 24 25 26 27 28 29 30 31 32 33 34 35 36 37 38 39 40 41 42 43 44 45 46 47 48 49 50
000
ASUS41 KLWX 310710
RWRLWX

REGIONAL WEATHER ROUNDUP
NATIONAL WEATHER SERVICE BALTIMORE MD/WASHINGTON DC
300 AM EDT MON AUG 31 2015

Note: "FAIR" indicates few or no clouds below 12,000 feet
with no significant weather and/or obstructions to visibility.
 TC=TEMPERATURE CELSIUS

 * =Non NWS site. Station does not report precipitation (e.g. rain,
    snow, etc.), thunder, or fog.

DCZ001-MDZ009-015-VAZ040>042-051-053>054-310800-
WASHINGTON METRO

CITY           SKY/WX    TMP DP  RH WIND       PRES   REMARKS
WASHINGTON NAT CLOUDY    77  67  71 S8        30.07F
DULLES         CLOUDY    74  66  76 CALM      30.07F
ANDREWS AFB    CLOUDY    75  65  69 SW9       30.07F
FT BELVOIR     CLOUDY    71  68  89 E1        30.07F
QUANTICO       CLOUDY    76  65  68 VRB3      30.08F
COLLEGE PARK*  CLOUDY    77  64  65 CALM      30.06F
LEESBURG*      CLOUDY    73  72  94 CALM      30.08F
MANASSAS*      CLOUDY    72  70  94 SE3       30.07F
GAITHERSBURG*  CLOUDY    75  64  69 CALM      30.12S

$$

MDZ006>007-011-014-310800-
BALTIMORE METRO

CITY           SKY/WX    TMP DP  RH WIND       PRES   REMARKS
BWI AIRPORT    CLOUDY    75  65  70 SW5       30.05F
MD SCIENCE CTR   N/A     78  65  63 MISG      30.05F
MARTIN STATE   CLOUDY    77  68  73 S3        30.07S
ANNAPOLIS      CLOUDY    76  64  66 S3        30.05F
FORT MEADE*    CLOUDY    70  66  88 CALM      30.08F

$$

MDZ012-015-019>023-310800-
MARYLAND EASTERN SHORE

CITY           SKY/WX    TMP DP  RH WIND       PRES   REMARKS
OCEAN CITY     CLOUDY    75  69  81 SW6       30.09F
SALISBURY      CLOUDY    71  67  87 SW7       30.09S
BAY BRIDGE AP*   N/A     77  63  61 S3        30.07S
CAMBRIDGE*     CLOUDY    77  68  73 S3        30.08S

$$

MDZ017>025-310800-
SOUTHERN MARYLAND

CITY           SKY/WX    TMP DP  RH WIND       PRES   REMARKS
PATUXENT RIVER CLOUDY    75  65  70 SW10      30.08S
ST INIGOES     CLOUDY    75  68  78 S5        30.08S
LEONARDTOWN*   CLOUDY    73  63  68 CALM      30.10S

$$

MDZ003>005-310800-
NORTH CENTRAL MARYLAND

CITY           SKY/WX    TMP DP  RH WIND       PRES   REMARKS
FREDERICK*     CLOUDY    72  70  94 S3        30.09F
HAGERSTOWN APT CLOUDY    73  66  78 CALM      30.07F
WESTMINSTER*   CLOUDY    73  66  78 CALM      30.08F

$$

MDZ501>502-310800-
WESTERN MARYLAND

CITY           SKY/WX    TMP DP  RH WIND       PRES   REMARKS
OAKLAND*       CLOUDY    64  61  88 SW5       30.19F
CUMBERLAND*    CLOUDY    72  66  83 CALM      30.12F

$$

VAZ025>031-310800-
SHENANDOAH VALLEY

CITY           SKY/WX    TMP DP  RH WIND       PRES   REMARKS
WINCHESTER*    CLOUDY    75  63  64 SW3       30.08F
FRONT ROYAL*   CLOUDY    72  64  78 S3        30.08F
LURAY*         CLOUDY    72  63  73 CALM      30.10F
NEW MARKET*    CLOUDY    69  66  90 CALM      30.10S
STAUNTON*      CLOUDY    72  66  80 CALM      30.14S
WAYNESBORO*    CLOUDY    71  62  74 CALM      30.14S

$$

WVZ021-048>050-054>055-310800-
EASTERN WEST VIRGINIA PANHANDLE

CITY           SKY/WX    TMP DP  RH WIND       PRES   REMARKS
MARTINSBURG    CLOUDY    71  64  78 S3        30.08F
PETERSBURG*    CLOUDY    67  67  99 CALM      30.13S FOG

$$

VAZ036>039-050-310800-
CENTRAL FOOTHILLS

CITY           SKY/WX    TMP DP  RH WIND       PRES   REMARKS
CHARLOTTESVILL CLOUDY    71  67  87 S5        30.09F
CULPEPER*      CLOUDY    71  67  85 CALM      30.09S
ORANGE*        CLOUDY    72  68  88 CALM      30.10S
GORDONSVILLE*  FAIR      69  67  94 CALM      30.09S
WARRENTON*     CLOUDY    74  69  84 CALM      30.07F

$$

VAZ055>057-310800-
NORTH AND CENTRAL PIEDMONT

CITY           SKY/WX    TMP DP  RH WIND       PRES   REMARKS
FREDERICKSBRG* CLOUDY    76  66  70 CALM      30.07F
STAFFORD*      CLOUDY    70  65  86 CALM      30.12S

$$

NCZ024-NYZ072-PAZ021-071-VAZ022-071-310800-
OTHER REGIONAL OBSERVATIONS

CITY           SKY/WX    TMP DP  RH WIND       PRES   REMARKS
NEW YORK CITY  CLOUDY    77  67  71 VRB7      30.04F
PHILADELPHIA   CLOUDY    78  66  66 SW9       30.05F
PITTSBURGH     MOCLDY    70  65  84 CALM      30.09F
ROANOKE        CLOUDY    70  65  84 CALM      30.15S
RICHMOND       CLOUDY    74  66  76 S9        30.09F
RALEIGH        CLOUDY    71  66  84 CALM      30.12F

$$

ANZ530>537-310800-
MARINE OBSERVATIONS

STATION/POSITION TIME  TEMP    WIND        PRES
                       AIR SEA DIR/SP/G
                 (UTC) (F)     (DEG/KT/KT) (MB)
THOMAS PT LIGHT  0600   78 79  220/ 10/ 11 1018.8

$$



USA.gov is the U.S. government's official web portal to all federal, state and local government web resources and services.